Location: ?
(35.3864°N, 139.3472°E)
Time: 13:04:14
(UTC+00:00)

Daily predictions for brighter satellites

Satellite Brightness Start Highest point End
(mag) Time Altitude Azimuth Time Altitude Azimuth Time Altitude Azimuth
Milstar 3 Cent rocket 4.0 18:08:06 37° SE 18:08:06 37° SE 18:16:33 10° E
Atlas Centaur 2 4.3 18:21:19 20° SSE 18:21:19 20° SSE 18:24:44 10° ESE
Cosmos 1745 Rocket 4.4 18:32:57 10° S 18:39:02 58° E 18:45:13 10° NNE
SL-16 R/B 3.2 18:51:00 38° SSE 18:51:00 38° SSE 18:54:22 10° SSE
BREEZE-M DEB (TANK) 4.3 18:52:52 57° NNW 18:53:15 57° NNW 19:14:52 10° ENE
ADEOS Rocket 4.1 18:52:36 10° S 18:55:29 31° S 18:55:29 31° S
Delta 2 Rocket 4.1 19:09:59 59° ESE 19:09:59 59° ESE 19:13:42 10° ESE
BREEZE-M DEB (TANK) 3.8 19:14:16 30° SE 19:14:20 30° SE 19:18:29 10° ENE
CZ-4B R/B 3.5 19:15:17 10° SE 19:17:02 25° ESE 19:17:02 25° ESE
Cosmos 2263 Rocket 2.0 19:16:53 54° SSW 19:18:16 85° WNW 19:23:59 10° NNE
Lacrosse 4 Rocket 4.2 19:21:29 10° NNE 19:23:55 15° NE 19:26:23 10° E
NOSS 3-4 (A) 3.2 19:21:54 31° SSW 19:24:51 89° ESE 19:30:59 10° NNE
NOSS 3-4 (C) 3.2 19:21:53 30° SSW 19:24:59 88° ESE 19:31:07 10° NNE
Cosmos 773 Rocket 3.9 19:25:04 48° NNW 19:26:35 88° ENE 19:31:50 10° SSE
Cosmos 1633 3.6 19:25:10 10° SSE 19:28:31 44° E 19:31:54 10° NNE
Lacrosse 5 2.1 19:27:02 28° SSW 19:29:39 66° SE 19:34:40 10° NE
ALOS 3.5 19:25:51 10° N 19:34:28 14° SSW 19:35:07 10° SSW
CZ-4B R/B 3.9 19:35:35 10° NNE 19:39:59 53° E 19:44:16 10° S
FALCON 9 DEB 4.0 19:39:43 39° SSE 19:40:09 42° SE 19:43:12 10° ENE
USA 276 3.8 19:43:10 26° S 19:43:10 26° S 19:44:54 10° SSE
Cosmos 1184 Rocket 3.4 19:39:38 10° S 19:42:50 56° E 19:46:04 10° NNE
Cosmos 1603 4.0 19:38:40 15° NNW 19:43:23 64° ENE 19:48:57 10° SSE
CENTAUR R/B 3.5 19:36:18 15° NNW 19:43:35 72° ENE 19:52:28 10° SE
ATLAS 2AS CENTAUR R/B 3.0 19:36:20 10° SSW 19:44:14 87° WNW 19:52:13 10° NNE
USA 234 3.4 19:39:29 10° NE 19:46:02 72° SE 19:52:33 10° SW
Cosmos 389 Rocket 4.3 19:49:17 19° SSW 19:49:17 19° SSW 19:50:28 10° SSW
FENGYUN 3A 3.8 19:42:12 10° N 19:47:24 48° WNW 19:52:33 10° SW
Nadezhda 1 Rocket 4.2 19:44:57 17° NNW 19:49:31 46° W 19:55:26 10° SSW
OAO 2 Rocket 3.5 19:47:53 35° WSW 19:49:58 68° SSE 19:55:05 10° E
TIMED 4.4 19:49:17 37° NNW 19:50:55 73° WSW 19:55:14 10° S
Okean 3 Rocket 3.4 19:48:17 10° SSW 19:52:38 72° W 19:57:01 10° N
H-2A R/B 4.5 19:49:46 10° NNE 19:53:22 35° E 19:56:55 10° SSE
Cosmos 1943 3.5 19:47:53 11° NNW 19:53:23 69° ENE 19:59:03 10° SSE
SJ 16-02 1.2 19:49:00 10° SSW 19:53:24 81° WNW 19:57:50 10° NNE
ERS-2 2.0 19:51:30 10° S 19:55:04 61° WSW 19:55:46 49° NW
Cosmos 1766 Rocket 3.4 19:51:14 10° SSW 19:55:41 72° W 20:00:10 10° N
ASTRO E2 3.3 19:54:57 35° SW 19:56:04 46° S 19:59:53 10° ESE
ADEOS 3.9 19:53:59 10° N 19:58:51 41° WNW 20:03:43 10° SW
NOSS 3-2 (A) 4.2 19:53:13 20° NW 19:58:58 64° WSW 20:07:30 10° SSE
COSMO-SKYMED 1 2.6 19:57:36 10° SSE 20:01:56 81° ENE 20:06:17 10° N
Cosmos 1689 Rocket 2.9 19:59:28 10° SSE 20:02:14 48° ENE 20:04:41 12° N
Cosmos 1408 Rocket 3.8 20:00:35 10° S 20:05:00 75° E 20:09:29 10° N
Atlas Centaur 2 3.1 20:03:56 12° SW 20:09:13 39° S 20:13:47 10° ESE
Meteor PRIRODA 3.5 20:06:42 10° N 20:10:26 72° WNW 20:14:07 10° SSW
SJ-12 4.1 20:08:51 10° N 20:12:43 45° WNW 20:16:34 10° SSW
USA 238 DEB 4.0 20:08:29 16° NW 20:14:17 56° WSW 20:21:39 10° S
BREEZE-M DEB (TANK) 3.8 20:13:57 21° NNW 20:14:20 22° NNW 20:17:05 10° NE
USA 238 4.0 20:08:33 16° NW 20:14:23 56° WSW 20:21:45 10° S
GPS 2-04 Rocket1 2.6 20:12:23 25° WSW 20:14:32 77° S 20:18:16 10° E
OAO 3 Rocket 3.7 20:13:51 23° W 20:16:27 46° SSW 20:20:58 10° SE
Cosmos 1538 Rocket 4.2 20:13:10 12° NNW 20:17:58 52° WSW 20:23:02 10° S
ASTRO F (AKARI) 4.1 20:18:47 10° N 20:21:53 84° WNW 20:25:00 10° SSW
FALCON 9 DEB 3.2 20:22:58 21° WSW 20:24:43 45° NW 20:27:49 10° NE
Cosmos 158 Rocket 4.1 20:19:58 10° NNW 20:24:53 70° ENE 20:29:51 10° SSE
Cosmos 1606 4.0 20:25:11 19° W 20:25:11 19° W 20:27:50 10° SW
Meteor 2-17 Rocket 4.4 20:19:22 10° SSW 20:25:20 63° W 20:31:20 10° N
Cosmos 1933 3.8 20:22:37 10° NNW 20:26:27 39° W 20:30:15 10° SSW
ATLAS CENTAUR R/B 4.0 20:26:31 10° NNE 20:27:50 11° NE 20:29:09 10° ENE
PSLV R/B 3.8 20:24:52 10° NNE 20:28:45 83° ESE 20:32:31 10° S
Cosmos 2084 3.7 20:30:14 13° NW 20:34:06 55° WSW 20:38:28 10° SSE
CZ-4C R/B 2.0 20:30:50 10° SW 20:35:28 56° NW 20:40:55 10° NNE
RESURS DK-1 2.3 20:31:48 10° SSW 20:35:56 76° WNW 20:40:06 10° NNE
BREEZE-M DEB (TANK) 4.2 20:29:44 11° NW 20:36:00 33° NNE 20:38:39 10° E
Cosmos 1898 Rocket 3.5 20:32:13 10° SSW 20:37:29 69° WNW 20:42:48 10° NNE
H-2A R/B 2.6 20:34:15 10° NNE 20:38:06 71° ESE 20:41:53 10° S
Cosmos 1844 Rocket 2.7 20:32:34 10° SSW 20:38:12 89° WNW 20:43:53 10° NNE
Cosmos 2228 Rocket 4.5 20:34:24 10° N 20:38:34 41° E 20:42:42 10° SSE
Cosmos 1782 2.8 20:36:50 10° NNW 20:40:48 60° W 20:44:45 10° S
Cosmos 1844 3.9 20:35:32 10° SSW 20:41:03 76° ESE 20:46:37 10° NNE
CZ-4B DEB 4.2 20:38:43 10° NNE 20:44:12 89° WNW 20:49:40 10° SSW
EO 1 Delta rocket 4.1 20:38:41 10° S 20:44:24 79° W 20:49:13 10° NNW
Meteor 1-4 Rocket 3.1 20:41:54 10° NNW 20:45:03 34° W 20:48:11 10° SSW
Cosmos 2181 Rocket 4.3 20:39:55 10° NNW 20:45:44 44° W 20:51:29 10° SSW
Milstar 3 Cent rocket 4.5 20:37:29 10° WSW 20:45:49 62° S 21:04:15 10° ESE
Genesis I 3.1 20:43:41 10° SW 20:47:26 62° WNW 20:51:14 10° NNE
SJ-7 4.5 20:44:08 10° N 20:48:05 53° WNW 20:52:05 10° SSW
Cosmos 405 Rocket 2.6 20:44:38 10° S 20:48:18 84° E 20:52:01 10° N
Envisat 3.0 20:47:33 10° N 20:52:38 72° WNW 20:57:39 10° SSW
Cosmos 2154 Rocket 4.0 20:46:49 10° S 20:53:00 88° W 20:59:17 10° N
FALCON 9 DEB 4.1 20:51:25 10° W 20:54:08 25° NW 20:56:52 10° NNE
Cosmos 1515 Rocket 3.8 20:52:30 10° NNW 20:56:50 51° W 21:01:08 10° SSW
FALCON 9 DEB 4.3 20:54:29 10° W 20:57:05 22° NW 20:59:42 10° NNE
Cosmos 1937 Rocket 3.5 20:54:54 10° SSW 20:59:56 59° WNW 21:05:03 10° N
ATLAS 3B R/B 3.3 20:53:39 10° NNW 21:00:36 63° ENE 21:07:47 10° SE
Cosmos 1812 2.9 20:57:54 10° N 21:01:45 79° E 21:05:34 10° S
EP 3 4.2 21:00:15 10° SW 21:02:21 35° WNW 21:04:15 10° NNE
Lacrosse 4 Rocket 1.8 20:58:38 10° NW 21:02:50 50° WSW 21:07:07 10° S
Cosmos 2263 Rocket 3.9 21:01:13 10° WNW 21:03:02 11° NW 21:04:50 10° NNW
Meteor 1-10 Rocket 4.3 21:02:09 10° N 21:07:45 87° E 21:13:21 10° S
